RH
88 84 81 80 75 77 76 77 78 65 57 56 60 60 59 60 60 58 60 59 60 61 60 60 58 59 60
88 89 89 86 82 82 71 62 74 61 58 60 60 59 59 60 59 61 60 60 60 60 60 59 60 59 60
84 94 94 91 88 87 84 82 65 62 60 60 60 61 62 62 62 62 61 61 60 60 60 61 61 62 62
88 91 92 87 93 95 90 86 84 65 66 66 63 61 63 66 64 62 62 61 61 61 62 62 61 61 62
89 94 95 95 92 89 89 90 90 88 85 81 83 86 86 77 68 64 65 63 60 61 62 61 61 62 61
91 94 92 94 94 93 94 97 97 86 88 89 89 91 88 89 72 66 63 61 62 62 62 62 62 62 61
88 91 93 92 93 94 94 93 87 79 86 91 85 86 84 67 64 64 63 64 64 63 61 62 62 62 62
89 87 87 83 86 80 84 87 91 87 94 96 80 80 71 75 69 65 65 65 63 60 59 61 62 63 64
67 69 69 68 72 94 98 98 95 83 90 94 82 87 82 71 69 67 62 62 61 59 64 64 65 64 68
80 76 70 77 70 81 93 97 95 91 81 91 89 87 91 83 80 76 75 64 64 66 67 66 66 71 78
82 80 80 82 86 89 92 97 96 92 80 91 98 95 94 88 80 80 81 74 72 72 69 68 68 69 80
89 88 89 95 96 96 91 90 87 82 76 84 97 96 99 92 86 76 77 81 83 82 79 75 73 72 71
94 92 93 92 93 96 92 88 89 87 79 91 96 94 99 94 88 85 82 78 86 88 84 84 84 83 88
94 84 89 97 96 91 94 91 92 90 90 90 93 96 96 88 88 92 83 93 91 90 89 86 82 80 83
98 95 85 84 87 90 92 94 97 92 92 94 90 90 93 95 95 84 84 85 81 85 87 89 85 83 80
97 94 92 92 93 97 98 96 94 93 95 94 98 100 94 90 85 91 88 89 85 85 86 94 88 80 75
97 95 95 95 90 97 97 98 96 93 93 93 100 99 96 92 78 62 89 85 84 86 86 89 90 82 75
Wind_Speed
3 2 3 4 5 4 5 5 4 10 9 11 12 14 15 13 10 10 13 14 12 11 12 11 8 10 11
3 3 4 4 4 5 4 3 4 7 11 14 16 16 12 9 11 15 16 14 12 13 12 11 11 10 11
5 2 3 2 3 3 4 4 3 9 13 15 13 9 11 10 15 13 13 14 14 13 14 14 13 11 14
5 3 3 4 3 4 4 2 4 5 9 10 9 7 12 14 14 13 12 13 13 14 16 15 11 15 18
5 2 3 2 4 3 3 4 4 5 3 2 2 3 5 10 11 14 13 13 13 14 15 14 15 17 16
5 6 6 4 3 3 3 2 3 3 3 3 3 5 5 4 13 14 14 14 15 15 15 16 17 16 15
9 9 5 6 4 3 5 5 6 5 3 7 3 6 5 7 14 15 17 17 16 13 12 12 13 15 17
7 8 7 6 6 5 7 6 7 6 4 8 3 5 4 5 17 19 14 12 11 10 12 17 17 17 18
19 18 17 17 15 5 6 6 6 5 4 4 2 3 3 7 6 10 9 9 11 16 19 19 18 18 13
5 10 14 10 15 7 4 8 6 5 2 4 2 1 4 2 2 3 3 14 18 20 20 19 20 8 7
7 6 6 5 6 6 7 7 6 8 4 3 3 2 3 6 4 5 5 7 7 10 18 21 21 17 8
5 6 6 7 7 6 7 6 7 9 5 4 3 3 3 8 9 4 5 5 6 9 8 14 21 22 22
6 6 5 6 6 3 4 6 6 6 7 6 6 6 4 9 11 9 11 5 5 7 8 8 9 7 10
6 6 3 3 4 4 3 4 4 5 6 8 8 7 8 10 10 11 10 8 4 6 7 9 9 10 11
5 5 6 6 5 5 4 4 6 6 7 4 7 9 9 11 11 12 12 11 10 10 10 11 10 10 11
6 6 6 6 5 3 3 5 7 6 7 5 3 1 5 9 21 13 12 11 10 10 10 12 12 10 11
6 6 5 5 7 4 4 4 6 7 7 6 3 5 9 12 7 17 11 10 10 9 10 11 14 12 11
Wind_Direction
246 275 290 290 308 314 303 297 306 308 295 306 313 312 314 305 311 309 317 313 315 315 308 307 306 321 326
244 253 238 253 268 297 289 288 302 297 299 302 300 300 295 294 318 311 307 304 310 307 302 304 305 302 312
268 244 266 271 294 285 281 283 273 283 297 301 301 292 296 303 310 303 306 303 305 301 307 300 296 310 308
252 253 239 261 259 276 289 258 278 277 282 290 277 301 308 303 304 303 295 291 288 293 301 289 301 305 302
249 249 245 232 227 240 272 283 279 244 256 261 249 275 274 287 290 292 285 280 289 291 292 296 296 296 291
227 237 239 220 218 235 255 287 301 232 207 242 230 253 250 242 268 274 277 283 288 288 288 290 286 285 296
227 224 224 210 202 230 233 236 252 257 231 274 215 255 243 254 275 274 280 280 277 271 274 285 292 293 289
209 224 219 212 207 230 248 253 256 246 200 274 233 250 252 242 267 286 282 271 264 272 289 290 285 285 284
250 248 249 254 248 234 242 249 263 260 190 242 230 260 239 267 269 280 278 274 277 288 292 289 286 288 293
244 256 258 255 262 255 229 255 264 293 206 187 211 230 305 243 279 267 273 282 280 284 283 281 282 286 277
226 228 220 225 237 233 223 227 239 245 211 169 209 194 222 287 249 242 239 261 264 265 271 277 279 276 268
219 225 222 224 216 226 226 219 228 237 238 216 228 206 217 271 275 271 262 243 245 259 261 266 274 275 271
232 238 218 220 218 207 224 230 237 236 241 220 221 241 214 260 274 276 287 276 259 260 262 257 258 257 267
229 247 214 178 209 204 203 223 239 254 229 228 230 226 255 258 264 270 268 266 258 251 254 254 253 250 250
226 229 238 231 224 204 213 208 236 260 263 236 238 236 236 247 260 263 265 263 262 263 260 262 254 250 251
220 227 231 223 218 198 191 215 250 255 258 250 220 287 260 251 238 256 260 260 261 259 257 264 266 253 249
215 218 219 209 243 201 213 217 249 260 256 255 208 228 268 270 258 245 247 256 263 255 246 249 265 266 259